Toledo, OH

11:39 AM EST on February 24, 2018 (GMT -0500)
Toledo Express

Weather History for KTOL - July, 2013

Change the Weather History Date:

Tuesday, July 30, 2013

  Actual Average Record
Temperature  
Mean Temperature 64 °F 73 °F  
Max Temperature 77 °F 84 °F 100 °F (1916)
Min Temperature 51 °F 62 °F 47 °F (1965)
Degree Days  
Heating Degree Days 1 0  
Month to date heating degree days 13 0  
Since 1 June heating degree days 44 35  
Since 1 July heating degree days 13 0  
Cooling Degree Days 0 8  
Month to date cooling degree days 239 259  
Year to date cooling degree days 495 482  
Since 1 June cooling degree days 401 429  
Growing Degree Days 14 (Base 50)    
Moisture  
Dew Point 56 °F    
Average Humidity 75    
Maximum Humidity 100    
Minimum Humidity 50    
Precipitation  
Precipitation 0.00 in 0.11 in 2.15 in (1967)
Month to date precipitation 3.84 3.12  
Year to date precipitation 24.69 20.06  
Snow  
Snow 0.00 in 0.00 in - ()
Month to date snowfall 0.0 0.0  
Since 1 June snowfall 0.0 0.0  
Since 1 July snowfall 0.0 0.0  
Snow Depth 0.00 in    
Sea Level Pressure  
Sea Level Pressure 30.19 in    
Wind  
Wind Speed 2 mph (SSE)    
Max Wind Speed 8 mph    
Max Gust Speed 28 mph    
Visibility 10 miles    
Events      
T = Trace of Precipitation, MM = Missing Value Source: NWS Daily Summary

Daily Weather History Graph

Daily Weather History Graph

Search for Another Location

Airport or City:

Trip Planner

Search our weather history database for the weather conditions in past years. The results will help you decide how hot, cold, wet, or windy it might be!

Date:

Astronomy

Jul. 30, 2013 Rise Set
Actual Time 6:28 AM EDT 8:54 PM EDT
Civil Twilight 5:56 AM EDT 9:26 PM EDT
Nautical Twilight 5:17 AM EDT 10:04 PM EDT
Astronomical Twilight 4:33 AM EDT 10:48 PM EDT
Moon 12:46 AM EDT (7/30) 3:13 PM EDT (7/30)
Length of Visible Light 15h 29m
Length of Day
14h 26m
Last Quarter, 41% of the Moon is Illuminated
Jul 30
Last Quarter
Aug 6
New
Aug 14
First Quarter
Aug 20
Full
Aug 28
Last Quarter

Hourly Weather History & Observations

Time (EDT) Temp. Dew Point Humidity Pressure Visibility Wind Dir Wind Speed Gust Speed Precip Events Conditions
12:52 AM 55.9 °F 54.0 °F 93% 30.20 in 10.0 mi Calm Calm - N/A   Clear
1:52 AM 55.0 °F 53.1 °F 93% 30.20 in 10.0 mi Calm Calm - N/A   Clear
2:52 AM 54.0 °F 52.0 °F 93% 30.19 in 10.0 mi Calm Calm - N/A   Clear
3:52 AM 53.1 °F 51.1 °F 93% 30.20 in 10.0 mi Calm Calm - N/A   Clear
4:52 AM 52.0 °F 51.1 °F 97% 30.21 in 10.0 mi Calm Calm - N/A   Clear
5:52 AM 52.0 °F 50.0 °F 93% 30.21 in 9.0 mi Calm Calm - N/A   Clear
6:52 AM 52.0 °F 50.0 °F 93% 30.22 in 10.0 mi Calm Calm - N/A   Clear
7:52 AM 57.9 °F 54.0 °F 87% 30.23 in 10.0 mi Calm Calm - N/A   Clear
8:52 AM 63.0 °F 55.0 °F 75% 30.24 in 10.0 mi Calm Calm - N/A   Clear
9:52 AM 66.0 °F 54.0 °F 65% 30.24 in 10.0 mi Calm Calm - N/A   Clear
10:52 AM 69.1 °F 55.0 °F 61% 30.23 in 10.0 mi Calm Calm - N/A   Clear
11:52 AM 72.0 °F 57.0 °F 59% 30.22 in 10.0 mi Calm Calm - N/A   Clear
12:52 PM 73.9 °F 57.0 °F 55% 30.21 in 10.0 mi Variable 3.5 mph - N/A   Scattered Clouds
1:52 PM 75.9 °F 55.9 °F 50% 30.20 in 10.0 mi SW 6.9 mph - N/A   Scattered Clouds
2:52 PM 75.0 °F 55.0 °F 50% 30.18 in 10.0 mi West 4.6 mph - N/A   Partly Cloudy
3:52 PM 75.9 °F 57.0 °F 52% 30.17 in 10.0 mi SE 3.5 mph - N/A   Mostly Cloudy
4:52 PM 77.0 °F 57.0 °F 50% 30.15 in 10.0 mi SSW 4.6 mph - N/A   Clear
5:52 PM 75.9 °F 55.9 °F 50% 30.15 in 10.0 mi Calm Calm - N/A   Clear
6:52 PM 75.0 °F 59.0 °F 57% 30.14 in 10.0 mi Calm Calm - N/A   Clear
7:52 PM 72.0 °F 61.0 °F 68% 30.13 in 10.0 mi Calm Calm - N/A   Clear
8:52 PM 66.9 °F 62.1 °F 84% 30.13 in 10.0 mi ESE 3.5 mph - N/A   Clear
9:52 PM 69.1 °F 61.0 °F 75% 30.14 in 10.0 mi ESE 3.5 mph - N/A   Mostly Cloudy
10:52 PM 68.0 °F 61.0 °F 78% 30.14 in 10.0 mi ESE 3.5 mph - N/A   Overcast
11:52 PM 66.9 °F 61.0 °F 81% 30.13 in 10.0 mi East 4.6 mph - N/A   Overcast